Stations météo

réclame
Mon MeteoGroup
Ploumanach, France (7117): Température de l'air & dewpoint: 04.12.2018 23:00:00 - 10.12.2018 23:00:00 (CET)Ploumanach, France (7117): Vitesse du vent & gusts: 04.12.2018 23:00:00 - 10.12.2018 23:00:00 (CET)Ploumanach, France (7117): Direction du vent: 04.12.2018 23:00:00 - 10.12.2018 23:00:00 (CET)Ploumanach, France (7117): reduced air pressure: 04.12.2018 23:00:00 - 10.12.2018 23:00:00 (CET)Ploumanach, France (7117): visibility: 04.12.2018 23:00:00 - 10.12.2018 23:00:00 (CET)Ploumanach, France (7117): Quantités de précipitations: 04.12.2018 23:00:00 - 10.12.2018 23:00:00 (CET)
Date & Time tt [°C] td [°C] ff [km/h] ff [knt] fx [km/h] fx [knt] dd ppp [hPa] vv [km] rr [mm]
10.12.2018 23:00:00 7,9 5,0 11 6 13 7 S 1029,2 - 0,0
10.12.2018 22:00:00 8,6 5,5 10 5 13 7 S 1029,4 - 0,0
10.12.2018 21:00:00 8,4 5,7 9 5 11 6 SSW 1029,7 - 0,0
10.12.2018 20:00:00 8,7 6,1 8 5 12 7 S 1029,8 - 0,0
10.12.2018 19:00:00 8,9 5,6 9 5 11 6 SW 1030,0 18 0,0
10.12.2018 18:00:00 9,1 5,6 8 5 15 8 WSW 1030,2 - 0,0
10.12.2018 17:00:00 10,1 5,9 9 5 16 9 WSW 1030,5 - 0,0
10.12.2018 16:00:00 10,9 6,2 8 4 21 11 W 1030,6 18 0,0
10.12.2018 15:00:00 11,4 5,9 13 7 21 12 W 1030,8 - 0,0
10.12.2018 14:00:00 11,5 5,8 12 7 23 13 W 1030,9 - 0,0
10.12.2018 13:00:00 11,0 5,3 15 8 24 13 W 1031,1 - 0,0
10.12.2018 12:00:00 11,0 5,7 12 7 22 12 W 1031,9 - 0,0
10.12.2018 11:00:00 10,6 5,8 14 7 26 14 WNW 1031,6 - 0,0
10.12.2018 10:00:00 10,6 5,8 18 10 31 17 WNW 1031,3 20 0,0
10.12.2018 09:00:00 10,4 6,0 17 9 35 19 W 1031,0 - 0,0
10.12.2018 08:00:00 10,2 5,4 18 10 36 19 WNW 1030,9 - 0,0
10.12.2018 07:00:00 10,4 5,6 20 11 34 18 W 1030,7 10 0,0
10.12.2018 06:00:00 10,0 5,0 19 10 38 20 W 1030,5 - 0,0
10.12.2018 05:00:00 10,3 5,3 21 11 35 19 W 1030,2 - 0,0
10.12.2018 04:00:00 10,1 4,9 21 12 39 21 W 1030,5 - 0,0
10.12.2018 03:00:00 10,2 5,6 23 12 42 23 W 1030,0 - 0,0
10.12.2018 02:00:00 10,2 5,6 22 12 39 21 WNW 1029,8 - 0,0
10.12.2018 01:00:00 10,3 5,5 23 12 46 25 W 1029,6 - 0,0
10.12.2018 00:00:00 10,4 5,4 24 13 51 28 WNW 1029,1 - 0,0
09.12.2018 23:00:00 10,5 5,3 26 14 48 26 W 1028,7 - 0,0
09.12.2018 22:00:00 10,6 6,2 27 15 49 26 WNW 1028,4 - 0,0
09.12.2018 21:00:00 10,7 6,1 26 14 53 28 WNW 1027,7 - 0,0
09.12.2018 20:00:00 10,9 6,4 31 17 55 30 W 1026,8 - 0,0
09.12.2018 19:00:00 10,8 6,5 31 17 58 31 W 1026,0 10 0,0
09.12.2018 18:00:00 10,9 6,6 34 18 63 34 W 1025,1 - 0,0
09.12.2018 17:00:00 11,2 6,7 30 16 58 31 W 1024,2 - 0,0
09.12.2018 16:00:00 11,5 7,0 32 17 67 36 W 1023,2 10 0,0
09.12.2018 15:00:00 11,5 6,8 42 23 74 40 W 1021,8 - 0,0
09.12.2018 14:00:00 11,7 7,0 40 21 74 40 W 1020,8 - 0,0
09.12.2018 13:00:00 11,7 7,0 40 22 80 43 W 1020,1 8 0,0
09.12.2018 12:00:00 11,4 7,3 44 24 81 44 W 1019,4 - 0,0
09.12.2018 11:00:00 11,8 6,5 42 23 81 44 W 1018,4 - 0,0
09.12.2018 10:00:00 11,6 7,1 45 24 100 54 W 1017,1 10 0,0
09.12.2018 09:00:00 11,4 7,7 45 25 89 48 W 1015,8 - 0,2
09.12.2018 08:00:00 11,3 6,8 48 26 91 49 W 1014,7 - 0,0
09.12.2018 07:00:00 10,9 7,0 51 28 87 47 W 1014,4 10 0,0
09.12.2018 06:00:00 11,0 6,1 50 27 87 47 W 1013,8 - 0,0
09.12.2018 05:00:00 11,2 5,3 51 28 89 48 W 1013,5 - 0,0
09.12.2018 04:00:00 11,2 5,3 48 26 86 46 W 1013,5 - 0,0
09.12.2018 03:00:00 11,0 4,9 50 27 89 48 W 1013,2 - 0,0
09.12.2018 02:00:00 11,0 4,7 47 25 83 45 W 1012,9 - 0,0
09.12.2018 01:00:00 10,4 7,5 39 21 81 44 W 1012,3 - 0,6
09.12.2018 00:00:00 11,3 7,2 40 22 87 47 W 1012,3 - 0,2
08.12.2018 23:00:00 10,2 7,8 45 24 80 43 W 1011,9 - 0,6
08.12.2018 22:00:00 12,2 6,9 43 23 78 42 WSW 1011,4 - 0,0
08.12.2018 21:00:00 12,0 7,7 42 23 81 44 WSW 1011,1 - 0,0
08.12.2018 20:00:00 12,0 8,8 44 24 80 43 WSW 1011,1 - 0,0
08.12.2018 19:00:00 12,0 9,4 36 20 79 42 WSW 1011,4 10 0,0
08.12.2018 18:00:00 11,1 9,7 48 26 90 49 W 1011,1 - 0,8
08.12.2018 17:00:00 12,2 10,8 39 21 70 38 WSW 1011,3 - 0,0
08.12.2018 16:00:00 12,2 11,9 49 27 85 46 WSW 1011,1 6 0,8
08.12.2018 15:00:00 12,5 11,7 39 21 76 41 WSW 1010,7 - 0,0
08.12.2018 14:00:00 11,9 11,1 38 20 64 35 SW 1012,3 - 0,2
08.12.2018 13:00:00 11,5 10,6 38 21 65 35 SW 1013,5 6 0,0
08.12.2018 12:00:00 11,1 10,5 35 19 63 34 SW 1014,8 - 0,6
08.12.2018 11:00:00 10,9 9,5 31 17 59 32 SW 1015,3 - 0,2
08.12.2018 10:00:00 11,0 8,7 31 17 51 28 WSW 1015,9 10 0,0
08.12.2018 09:00:00 11,5 7,6 31 17 62 33 WSW 1016,1 - 0,0
08.12.2018 08:00:00 11,5 6,8 37 20 74 40 W 1016,6 - 0,0
08.12.2018 07:00:00 11,3 7,2 34 19 75 40 WSW 1016,0 10 0,0
08.12.2018 06:00:00 11,2 6,7 41 22 77 42 W 1015,6 - 0,0
08.12.2018 05:00:00 11,3 6,6 46 25 78 42 W 1015,8 - 0,0
08.12.2018 04:00:00 11,0 6,1 39 21 79 43 WSW 1015,9 - 0,0
08.12.2018 03:00:00 11,0 6,5 40 21 80 43 W 1015,9 - 0,0
08.12.2018 02:00:00 10,6 6,7 39 21 78 42 WSW 1016,0 - 0,0
08.12.2018 01:00:00 10,4 6,0 47 25 78 42 W 1016,0 - 0,2
08.12.2018 00:00:00 10,1 6,4 39 21 108 59 W 1015,4 - 0,4
07.12.2018 23:00:00 10,7 4,6 42 23 81 44 W 1015,8 - 0,0
07.12.2018 22:00:00 9,5 5,9 32 17 79 43 WSW 1016,1 - 0,0
07.12.2018 21:00:00 10,5 4,2 38 20 69 37 W 1015,4 - 0,0
07.12.2018 20:00:00 9,4 4,8 41 22 80 43 W 1015,4 - 0,4
07.12.2018 19:00:00 10,0 5,4 36 19 84 45 W 1014,6 10 0,2
07.12.2018 18:00:00 9,7 4,9 33 18 64 34 W 1014,1 - 0,0
07.12.2018 17:00:00 9,6 3,8 35 19 76 41 W 1013,1 - 0,0
07.12.2018 16:00:00 9,1 2,4 43 23 87 47 W 1012,5 6 0,2
07.12.2018 15:00:00 10,9 4,1 41 22 80 43 W 1011,3 - 0,2
07.12.2018 14:00:00 10,6 4,3 42 23 83 45 W 1010,4 - 0,0
07.12.2018 13:00:00 10,8 4,9 46 25 75 40 W 1009,4 8 0,0
07.12.2018 12:00:00 10,9 5,2 38 21 66 35 W 1009,4 - 0,0
07.12.2018 11:00:00 10,4 7,6 35 19 59 32 W 1009,1 - 0,2
07.12.2018 10:00:00 9,6 8,8 29 16 67 36 W 1008,5 7 3,3
07.12.2018 09:00:00 12,7 12,2 30 16 52 28 SW 1006,4 - 2,6
07.12.2018 08:00:00 12,3 11,5 29 16 56 30 SSW 1007,2 - 3,2
07.12.2018 07:00:00 12,2 10,4 35 19 64 35 SSW 1009,3 7 0,0
07.12.2018 06:00:00 12,8 8,9 29 16 72 39 SW 1010,6 - 0,0
07.12.2018 05:00:00 12,7 9,7 35 19 59 32 SW 1012,2 - 0,0
07.12.2018 04:00:00 12,4 11,0 26 14 57 31 SW 1013,9 - 0,2
07.12.2018 03:00:00 12,5 11,1 30 16 61 33 SW 1015,1 - 0,0
07.12.2018 02:00:00 12,7 11,4 34 18 55 30 SW 1015,8 - 0,0
07.12.2018 01:00:00 12,6 11,3 24 13 57 31 SW 1016,6 - 0,0
07.12.2018 00:00:00 12,7 11,1 30 16 54 29 SW 1017,3 - 0,0
06.12.2018 23:00:00 12,8 11,0 28 15 48 26 SW 1018,1 - 0,0
06.12.2018 22:00:00 12,7 11,4 26 14 49 26 SW 1018,5 - 0,0
06.12.2018 21:00:00 12,6 11,8 24 13 44 24 SW 1019,2 - 0,0
06.12.2018 20:00:00 12,7 11,6 26 14 46 25 SW 1019,8 - 0,0
06.12.2018 19:00:00 12,6 11,3 23 13 46 25 SW 1019,9 18 0,0
06.12.2018 18:00:00 12,6 11,0 27 14 44 24 SW 1019,7 - 0,0
06.12.2018 17:00:00 12,6 10,7 24 13 42 23 SW 1019,8 - 0,0
06.12.2018 16:00:00 12,8 10,3 23 12 49 27 SW 1019,8 12 0,0
06.12.2018 15:00:00 13,2 9,6 29 15 50 27 WSW 1020,2 - 0,0
06.12.2018 14:00:00 13,3 9,5 29 16 46 25 WSW 1020,5 - 0,0
06.12.2018 13:00:00 12,8 10,0 28 15 50 27 WSW 1020,7 15 0,0
06.12.2018 12:00:00 12,4 10,3 27 15 43 23 WSW 1020,8 - 0,0
06.12.2018 11:00:00 11,6 10,5 27 14 42 23 WSW 1020,7 - 0,0
06.12.2018 10:00:00 11,5 11,5 22 12 40 22 WSW 1020,3 - 0,0
06.12.2018 09:00:00 11,7 11,7 21 12 43 23 WSW 1019,9 - 0,2
06.12.2018 08:00:00 11,5 11,5 27 14 52 28 WSW 1019,2 - 0,2
06.12.2018 07:00:00 11,7 11,7 24 13 44 24 WSW 1018,8 10 0,2
06.12.2018 06:00:00 11,7 11,7 20 11 43 23 WSW 1018,4 - 0,0
06.12.2018 05:00:00 11,8 11,8 22 12 48 26 WSW 1017,9 - 0,2
06.12.2018 04:00:00 11,9 11,9 26 14 42 23 WSW 1017,1 - 0,0
06.12.2018 03:00:00 12,2 12,2 24 13 43 23 WSW 1017,1 - 0,0
06.12.2018 02:00:00 12,2 12,2 21 12 41 22 WSW 1016,1 - 0,0
06.12.2018 01:00:00 12,4 12,4 20 11 35 19 WSW 1015,3 - 0,2
06.12.2018 00:00:00 12,5 12,5 23 13 43 23 WSW 1014,8 - 0,0
05.12.2018 23:00:00 12,6 12,6 22 12 45 25 WSW 1014,4 - 0,0
05.12.2018 22:00:00 12,7 12,7 23 12 45 24 WSW 1014,1 - 0,0
05.12.2018 21:00:00 12,8 12,8 24 13 45 24 WSW 1013,6 - 0,4
05.12.2018 20:00:00 12,8 12,6 24 13 39 21 WSW 1012,8 - 0,4
05.12.2018 19:00:00 12,3 12,0 12 6 32 18 SW 1012,7 10 5,7
05.12.2018 18:00:00 13,0 11,7 18 10 31 17 SW 1012,4 - 0,0
05.12.2018 17:00:00 13,3 12,0 19 10 40 21 SW 1012,3 - 0,0
05.12.2018 16:00:00 13,5 12,7 22 12 38 20 SW 1012,0 14 0,0
05.12.2018 15:00:00 13,1 12,5 19 10 37 20 SSW 1012,3 - 5,3
05.12.2018 14:00:00 13,2 12,3 20 11 39 21 SSW 1012,8 - 2,8
05.12.2018 13:00:00 13,7 11,6 22 12 44 24 SSW 1014,0 5 0,0
05.12.2018 12:00:00 13,6 10,6 21 12 42 23 S 1014,6 - 0,0
05.12.2018 11:00:00 13,1 10,3 16 9 35 19 SSW 1015,6 - 0,0
05.12.2018 10:00:00 12,7 10,1 16 9 36 19 S 1016,1 20 0,0
05.12.2018 09:00:00 12,3 10,0 18 10 32 18 SSW 1016,7 - 0,0
05.12.2018 08:00:00 12,4 10,1 17 9 31 17 S 1016,3 - 0,0
05.12.2018 07:00:00 12,6 10,3 14 7 24 13 SSW 1016,6 16 0,0
05.12.2018 06:00:00 12,8 10,7 13 7 29 16 SSW 1017,2 - 0,0
05.12.2018 05:00:00 12,8 11,5 11 6 22 12 SSW 1017,5 - 0,0
05.12.2018 04:00:00 12,9 12,3 10 5 18 10 SSW 1017,9 - 0,2
05.12.2018 03:00:00 13,1 12,6 11 6 21 11 SSW 1018,1 - 0,0
05.12.2018 02:00:00 12,9 12,3 13 7 29 16 SSW 1018,4 - 0,2
05.12.2018 01:00:00 12,8 11,4 16 9 40 22 SSW 1018,8 - 0,0
05.12.2018 00:00:00 12,7 11,3 20 11 38 20 S 1018,7 - 0,0
04.12.2018 23:00:00 12,4 11,3 19 11 36 19 S 1018,8 - 0,0

tt = Température de l'air
td = dewpoint
ff = Vitesse du vent
fx = gusts
dd = Direction du vent
ppp = reduced air pressure
vv = visibility
rr = Quantités de précipitations

stations d'obs. à proximité